Total_Precipitation_Accumulation
0.43 0.07 0.03 0.05 0.05 0.06 0.04 0.00 0.00 0.00 0.02 0.07 0.11 0.14 0.17 0.18 0.25 0.33 0.31 0.31 0.35 0.34 0.38 0.30 0.30 0.33 0.36 0.30 0.23 0.19 0.28 0.67 0.90 0.82 1.13 1.08 1.11 0.72 0.68 0.97 0.99 0.84 1.42
0.33 0.15 0.07 0.06 0.04 0.08 0.11 0.05 0.02 0.02 0.02 0.05 0.11 0.14 0.21 0.24 0.33 0.41 0.40 0.41 0.51 0.59 0.60 0.45 0.38 0.43 0.47 0.40 0.24 0.19 0.16 0.17 0.33 0.43 0.48 0.53 0.75 0.66 0.57 1.06 1.09 0.95 1.44
0.62 0.52 0.41 0.11 0.03 0.05 0.08 0.08 0.06 0.05 0.04 0.07 0.10 0.21 0.34 0.37 0.55 0.53 0.40 0.42 0.77 1.19 1.05 0.75 0.66 0.78 0.64 0.48 0.20 0.12 0.09 0.10 0.08 0.11 0.26 0.45 0.55 0.60 0.57 0.97 1.15 1.17 1.28
1.37 0.90 0.86 0.61 0.11 0.04 0.04 0.04 0.05 0.06 0.07 0.06 0.06 0.15 0.38 0.44 0.38 0.37 0.51 0.60 0.90 1.20 1.36 1.09 1.30 1.66 1.18 0.81 0.40 0.20 0.13 0.06 0.06 0.08 0.24 0.45 0.45 0.56 0.57 0.78 0.88 1.12 1.60
1.16 1.19 1.07 1.16 0.90 0.35 0.18 0.10 0.07 0.11 0.08 0.07 0.10 0.18 0.30 0.32 0.45 0.48 0.91 1.10 1.39 1.32 1.56 1.50 1.42 1.43 1.06 0.99 1.08 0.71 0.33 0.11 0.09 0.14 0.48 0.30 0.24 0.54 0.84 0.85 0.69 1.36 1.40
1.13 1.27 1.49 1.49 1.01 0.64 0.65 0.29 0.12 0.11 0.04 0.06 0.16 0.35 0.33 0.90 1.04 1.19 1.68 2.47 2.56 2.24 2.30 3.24 2.81 1.82 0.92 1.07 1.11 0.72 0.32 0.07 0.09 0.41 1.34 0.52 0.68 0.64 0.96 0.93 0.62 0.77 0.81
1.83 2.56 3.32 3.01 2.44 1.15 1.03 0.80 0.35 0.18 0.09 0.12 0.31 0.74 1.04 1.76 1.52 1.16 0.96 1.02 1.25 2.20 2.22 1.88 1.74 1.72 1.15 0.30 0.15 0.25 0.17 0.07 0.29 0.93 0.71 0.42 0.75 0.85 0.79 0.55 0.37 0.32 0.35
3.36 3.46 5.12 5.76 5.47 4.26 2.68 1.90 1.54 1.37 1.03 0.79 0.56 0.59 0.59 1.04 1.24 0.75 0.44 0.34 0.26 0.31 0.41 0.40 0.33 0.21 0.22 0.09 0.06 0.08 0.08 0.08 0.18 1.19 0.64 0.42 0.58 0.73 0.45 0.28 0.20 0.18 0.18
5.86 5.89 5.29 7.55 5.19 4.08 4.32 3.31 3.34 2.38 2.16 1.90 1.39 0.82 0.43 0.44 0.59 0.33 0.27 0.21 0.15 0.13 0.18 0.26 0.19 0.15 0.09 0.06 0.07 0.06 0.13 0.04 0.14 0.47 0.50 0.23 0.41 0.80 0.62 0.35 0.21 0.18 0.15
6.60 9.38 6.78 6.77 5.27 3.53 3.46 4.04 3.26 3.43 2.82 2.05 1.61 1.32 0.47 0.54 0.47 0.51 0.32 0.26 0.15 0.09 0.11 0.13 0.21 0.24 0.28 0.27 0.08 0.08 0.22 0.17 0.13 0.29 0.38 0.33 0.44 0.68 0.84 0.54 0.35 0.28 0.21
3.71 5.29 5.86 7.32 6.12 3.64 2.53 3.44 2.97 3.66 3.20 2.04 1.59 2.08 0.83 0.42 0.44 0.39 0.29 0.18 0.17 0.11 0.11 0.17 0.38 0.35 0.30 0.26 0.18 0.20 0.21 0.12 0.17 0.10 0.26 0.43 0.45 0.56 0.60 0.53 0.39 0.33 0.31
2.12 2.42 3.34 5.36 6.95 4.41 2.99 2.12 2.22 2.96 4.65 2.35 1.57 1.79 1.46 0.60 0.52 0.36 0.30 0.28 0.30 0.28 0.33 0.61 0.62 0.49 0.31 0.16 0.16 0.30 0.13 0.08 0.18 0.13 0.18 0.33 0.57 0.72 0.89 0.74 0.46 0.33 0.31
1.37 1.46 1.49 2.51 4.27 3.75 3.14 2.62 2.27 2.44 4.19 3.53 1.70 1.25 1.59 0.71 0.71 0.56 0.49 0.53 0.50 0.47 0.58 0.62 0.68 0.72 0.64 0.40 0.28 0.47 0.26 0.13 0.36 0.63 0.82 0.27 0.49 0.73 0.84 0.78 0.55 0.50 0.49
1.23 1.18 1.14 0.98 2.12 2.14 1.87 2.22 2.07 1.44 2.06 3.80 1.92 1.47 1.24 1.22 0.77 0.52 0.34 0.37 0.35 0.31 0.38 0.41 0.58 0.60 0.48 0.47 0.44 0.23 0.16 0.11 0.16 0.36 0.52 0.52 0.42 0.72 0.81 0.76 0.80 1.12 1.23
1.13 1.17 1.09 0.88 1.18 1.71 1.81 1.88 1.58 0.94 1.27 2.74 2.32 1.70 1.09 1.32 1.09 0.75 0.53 0.29 0.22 0.24 0.29 0.24 0.29 0.31 0.28 0.30 0.32 0.25 0.21 0.16 0.14 0.22 0.28 0.52 0.41 0.56 0.62 0.55 0.67 0.80 0.92
0.70 0.58 0.62 0.80 0.73 1.09 1.61 1.31 1.42 0.98 1.02 2.02 2.46 1.77 1.20 0.91 0.94 0.55 0.45 0.43 0.46 0.42 0.29 0.25 0.27 0.26 0.37 0.59 0.62 0.48 0.29 0.18 0.17 0.16 0.17 0.38 0.52 0.44 0.43 0.56 0.50 0.63 0.74
0.49 0.45 0.46 0.57 0.67 1.09 1.40 1.13 1.07 0.97 0.84 1.29 2.07 1.81 1.80 1.06 0.89 0.66 0.46 0.36 0.34 0.40 0.57 0.61 0.49 0.35 0.29 0.35 0.61 0.44 0.31 0.22 0.24 0.16 0.13 0.21 0.47 0.57 0.39 0.39 0.52 0.57 0.71
0.38 0.31 0.32 0.68 1.01 1.05 1.17 1.11 1.18 0.96 0.87 1.26 1.73 1.73 1.89 1.76 0.89 0.89 0.65 0.36 0.30 0.50 0.75 0.91 0.70 0.39 0.32 0.31 0.32 0.20 0.12 0.15 0.17 0.18 0.18 0.11 0.14 0.32 0.47 0.34 0.34 0.36 0.46
0.12 0.17 0.52 0.90 1.33 1.61 1.50 1.52 1.97 1.75 1.40 1.26 1.60 1.63 1.29 1.85 1.30 0.88 0.85 0.66 0.69 0.59 0.73 1.07 0.99 0.80 0.53 0.32 0.32 0.31 0.15 0.09 0.12 0.16 0.18 0.19 0.17 0.16 0.26 0.38 0.36 0.34 0.37
0.13 0.12 0.71 1.16 1.45 1.62 2.42 2.26 2.08 1.56 1.48 1.35 1.49 1.48 1.36 1.61 1.81 1.34 1.02 0.91 1.05 1.05 0.82 0.85 1.01 0.96 0.88 0.74 0.64 0.52 0.31 0.17 0.16 0.17 0.18 0.19 0.26 0.31 0.23 0.31 0.33 0.31 0.47
0.13 0.31 0.84 1.27 1.59 1.30 0.95 0.82 1.06 1.00 0.95 1.16 1.50 1.36 1.03 1.26 1.42 1.67 1.14 0.83 0.85 0.95 0.96 1.18 1.14 0.98 0.68 0.88 1.29 1.04 0.72 0.37 0.27 0.20 0.20 0.21 0.24 0.27 0.34 0.38 0.32 0.28 0.31
0.27 0.38 0.43 0.43 0.63 0.32 0.27 0.39 0.74 0.95 1.02 1.06 1.30 1.15 1.07 1.22 1.49 1.47 1.36 1.21 0.80 0.80 0.93 1.39 1.44 1.41 0.90 1.19 1.50 1.65 1.29 1.03 0.57 0.38 0.32 0.32 0.28 0.34 0.34 0.40 0.40 0.33 0.26
0.15 0.18 0.08 0.09 0.37 0.36 0.36 0.51 0.80 1.23 1.26 1.32 1.55 1.42 1.21 1.47 1.44 1.56 1.26 1.48 1.32 1.33 1.14 1.30 1.56 1.39 0.99 1.08 1.26 1.47 1.46 1.15 0.82 0.68 0.57 0.46 0.44 0.38 0.39 0.43 0.59 0.61 0.48
0.02 0.05 0.05 0.12 0.29 0.59 0.66 0.66 0.71 0.95 0.93 1.03 1.12 1.40 1.28 1.30 1.45 1.56 1.58 1.72 1.67 1.58 1.54 1.44 1.62 1.54 1.55 1.21 1.36 1.12 1.07 1.11 1.16 0.87 0.67 0.64 0.62 0.53 0.51 0.50 0.53 0.61 0.60
0.11 0.17 0.31 0.42 0.48 0.59 0.71 0.82 0.79 0.88 0.95 1.03 1.18 1.51 1.68 1.27 1.10 1.15 1.40 1.54 1.71 1.72 1.64 1.72 1.72 1.84 1.80 1.97 1.99 1.99 1.88 1.74 1.80 1.81 1.38 0.83 0.78 0.75 0.78 0.89 0.99 0.93 0.76
0.34 0.44 0.54 0.54 0.56 0.65 0.74 0.83 0.88 0.88 0.95 0.90 1.13 1.52 2.25 2.24 1.74 1.50 1.51 1.51 1.66 1.80 1.67 1.91 2.01 1.89 2.16 2.30 2.50 2.85 2.93 2.94 2.77 2.79 2.68 1.94 1.36 0.92 0.78 0.86 0.95 0.96 0.99